Location: Rana
(34.0895°N, 117.3200°W)
Time: 17:16:27
(UTC+00:00)

ATLAS 5 CENTAUR R/B - Pass Details

Date: 13 June 2024
Orbit: 417 x 1167 km, 63.3° (Epoch: 13 July)

Event Time Altitude Azimuth Distance (km) Brightness Sun altitude
Exits shadow 12:00:17 - 217° (SW) 1,598 3.1 -7.3°
Reaches altitude 10° 12:00:32 10° 218° (SW) 1,489 2.9 -7.3°
Maximum altitude 12:03:44 67° 301° (WNW) 456 0.8 -6.7°
Drops below altitude 10° 12:07:05 10° 25° (NNE) 1,551 4.7 -6.2°
Sets 12:09:16 0° 28° (NNE) 2,484 5.9 -5.8°
